Regional Weather Roundup
Issued by NWS

Home | Current Version | Previous Version | Text Only | Print | Product List | Glossary Off
Versions: 1 2 3 4 5 6 7 8 9 10 11 12 13 14 15 16 17 18 19 20 21 22 23 24 25 26 27 28 29 30 31 32 33 34 35 36 37 38 39 40 41 42 43 44 45 46 47 48 49 50

000
ASUS45 KBOU 300307
RWRCO

WEATHER ROUNDUP FOR COLORADO
NATIONAL WEATHER SERVICE DENVER/BOULDER CO
800 PM MST THU JAN 29 2015

NOTE: "FAIR" INDICATES FEW OR NO CLOUDS BELOW 12000 FEET WITH NO
SIGNIFICANT WEATHER AND/OR OBSTRUCTIONS TO VISIBILITY.

COZ001>005-013-030-031-300400-
...NORTHWEST COLORADO...

CITY           SKY/WX    TMP DP  RH WIND       PRES   REMARKS
CRAIG          CLOUDY    33  28  81 E6        30.31F WCI  28
HAYDEN         CLOUDY    34  27  75 CALM      30.31F
MEEKER         CLOUDY    30  26  85 NE3       30.30F
MOUNT WERNER   NOT AVBL
STEAMBOAT SPGS CLOUDY    33  25  75 CALM      30.31F
WALDEN         MOCLDY    27  21  80 SE7       30.34S WCI  19
$$

COZ006>008-011-300400-
...WEST CENTRAL VALLEYS...

CITY           SKY/WX    TMP DP  RH WIND       PRES   REMARKS
GRAND JUNCTION CLOUDY    41  32  70 E5        30.28S
MONTROSE       CLOUDY    41  28  60 SE3       30.32S
EAGLE          CLEAR     36  28  75 VRB5      30.33S
RIFLE          CLOUDY    39  28  64 SE3       30.29R
DELTA          CLOUDY    47  29  50 CALM      30.30S
NUCLA          CLOUDY    43  30  61 SE5       30.34S
$$

COZ017>023-064>068-300400-
...SOUTHWEST COLORADO...

CITY           SKY/WX    TMP DP  RH WIND       PRES   REMARKS
DURANGO        CLOUDY    40  31  70 SE3       30.35R
CORTEZ         CLOUDY    48  30  49 SE13G23   30.30S
PAGOSA SPRINGS CLOUDY    40  29  66 NE3       30.39R
TELLURIDE      CLOUDY    36  27  70 CALM      30.37S
WOLF CREEK PAS NOT AVBL
$$

COZ009-010-012-014-032>034-037-058>063-300400-
...CENTRAL COLORADO...

CITY           SKY/WX    TMP DP  RH WIND       PRES   REMARKS
ASPEN          CLOUDY    33  22  63 SW6       30.32F WCI  28
BUENA VISTA    CLOUDY    32  23  69 SE3       30.42F
COPPER MTN     CLOUDY    28  14  54 S12       30.41F WCI  18
BERTHOUD PASS  FAIR      21  16  79 W12       30.42F WCI   9
COTTONWOOD PAS CLOUDY    28  25  86 CALM      30.42F
GUNNISON       CLOUDY    25  18  74 CALM      30.40S
KREMMLING      CLOUDY    30  27  86 CALM      30.36S
LEADVILLE      CLOUDY    23  20  88 CALM      30.40F
MONARCH PASS   CLOUDY    21  19  93 MISG      30.53S
SALIDA         CLOUDY    33  24  69 CALM      30.50S
SUNLIGHT       CLOUDY    30  23  74 CALM      30.40S
WILKERSON PASS CLOUDY    21  19  93 SW8       30.43F FOG     WCI  12
$$

COZ069>075-300400-
...SAN LUIS VALLEY/SANGRE DE CRISTO MOUNTAINS...

CITY           SKY/WX    TMP DP  RH WIND       PRES   REMARKS
ALAMOSA        CLOUDY    37  25  61 S9        30.38S
LA VETA PASS   CLOUDY    27  21  80 S6        30.43S WCI  20
SAGUACHE       CLOUDY    34  30  86 CALM      30.40S
$$

COZ035-036-038>040-300400-
...NORTHERN COLORADO FRONT RANGE...

CITY           SKY/WX    TMP DP  RH WIND       PRES   REMARKS
DENVER INTL AP MOCLDY    32  25  75 SE9       30.36F WCI  24
DMNS CITY PARK   N/A     41  22  47 S3        30.35F
AURORA         MOCLDY    39  22  50 S21G26    30.35F
FRONT RANGE AP NOT AVBL
ERIE MUNI ARPT MOCLDY    35  26  70 CALM      30.36F
BOULDER MUN AP MOCLDY    37  27  65 W3        30.35F
CENTENNIAL     MOCLDY    38  23  55 S13       30.36F
BROOMFIELD     PTCLDY    39  27  60 CALM      30.37S
FORT COLLINS   MOCLDY    37  21  52 SE8       30.38F
LONGMONT       MOCLDY    34  26  72 NW3       30.38F
$$

COZ041-046-047-076>085-087-088-300400-
...PIKES PEAK/PALMER DIVIDE AND SOUTHERN FOOTHILLS...

CITY           SKY/WX    TMP DP  RH WIND       PRES   REMARKS
COLO. SPRINGS  CLOUDY    33  23  66 S9        30.44S WCI  25
A. F. ACADEMY  MOCLDY    33  21  59 SE8       30.42S WCI  27
ELLICOTT       MOCLDY   N/A N/A N/A S8        30.43S
FALCON         MOCLDY    31  22  68 S9        30.44S WCI  23
FORT CARSON    MOCLDY    35  23  61 S7        30.43S WCI  29
LIMON          PTCLDY    29  20  69 SE7       30.43S WCI  22
MONUMENT HILL  PTCLDY    32  23  69 S13       30.40S WCI  22
TRINIDAD       CLOUDY    37  26  64 S6        30.44S
$$

COZ042>045-048>051-090-091-300400-
...NORTHEAST COLORADO...

CITY           SKY/WX    TMP DP  RH WIND       PRES   REMARKS
GREELEY ARPT   MOCLDY    34  19  55 SE9       30.37F WCI  26
AKRON          PTCLDY    33  18  53 SE10      30.42R WCI  25
BURLINGTON     CLEAR     31  18  58 SE8       30.45S WCI  23
WRAY           PTCLDY    32  20  61 E3        30.45S
STERLING       PTCLDY    30  21  69 CALM      30.41S
HOLYOKE        PTCLDY    28  18  64 S8        30.44F WCI  20
FORT MORGAN    PTCLDY    34  22  61 SE5       30.41S WCI  30
$$

COZ086-089-092>099-300400-
...SOUTHEAST COLORADO...

CITY           SKY/WX    TMP DP  RH WIND       PRES   REMARKS
PUEBLO         MOCLDY    39  23  52 SE5       30.44S
LA JUNTA       MOCLDY    41  25  53 S5        30.44F
LAMAR          PTCLDY    38  21  50 SE10      30.45F
SPRINGFIELD      N/A     36  23  59 SE3       30.47S
$$



USA.gov is the U.S. government's official web portal to all federal, state and local government web resources and services.